• Join FlightAware (Why Join?)
  • Login
  • US Flag 
11:35PM EDT


 

Airport Tracker/Info


-or-


 

Live Flight TrackerFlight Track Log ✈ EGF3949 ✈ 07-May-2013 ✈ KORD - KAZO

Flight Track Log - Related Links

Times and Time Zones

All times are in EDT time to prevent confusion due to time zone crossing. See the EGF3949 flight status page for this flight to view local times or setup timezone preferences in your user account.

Time Position Orientation Groundspeed Altitude Reporting Facility
EDT Latitude Longitude Course Direction KTS MPH feet Rate Location/Type
10:15AM 42.0000 -87.8833 78° East 160 184 2,000  Level Chicago TRACON
10:16AM 42.0333 -87.8000 62° Northeast 237 273 4,200 1,500 Climbing Chicago TRACON
10:17AM 42.0342 -87.5405 83° East  Level FlightAware Approximate
10:17AM 42.0333 -87.7167 90° East 258 297 5,000  Level Chicago TRACON
10:17AM 42.0333 -87.6167 90° East 256 295 5,600 2,040 Climbing Chicago TRACON
10:18AM 42.0456 -87.4154 83° East  Level FlightAware Approximate
10:19AM 42.0616 -87.2914 78° East  Level FlightAware Approximate
10:20AM 42.0806 -87.1679 78° East  Level FlightAware Approximate
10:20AM 42.0597 -87.3989 81° East 277 319 11,600  Level Chicago Center
10:21AM 42.0767 -87.2892 78° East 296 341 14,100 2,220 Climbing Chicago Center
10:22AM 42.0947 -87.1789 78° East 302 348 16,300 1,380 Climbing Chicago Center
10:23AM 42.1047 -87.0581 84° East 322 371 17,000 300 Climbing Chicago Center
10:24AM 42.1153 -86.9394 83° East 320 368 17,000 -840 Level Chicago Center
10:25AM 42.1281 -86.7922 83° East 334 384 15,300 -1,740 Descending Chicago Center
10:26AM 42.1419 -86.6611 82° East 364 419 13,400 -1,920 Descending Chicago Center
10:27AM 42.1528 -86.5253 84° East 367 422 11,400 -1,200 Descending Chicago Center
10:28AM 42.1642 -86.3944 83° East 355 409 11,000 -240 Descending Chicago Center
10:29AM 42.1764 -86.2611 83° East 357 411 11,000  Level Chicago Center
10:30AM 42.1872 -86.1289 84° East 356 410 11,000  Level Chicago Center
10:31AM 42.1989 -85.9850 84° East 318 366 11,000 -300 Level Chicago Center
10:32AM 42.2019 -85.8917 87° East 283 326 10,400 -600 Descending Chicago Center